Year,Month,Day,Hour,Minute,Value (Times are PST for insolation in W/m^2)
2014,10,02,00,00,0.00
2014,10,02,00,01,0.00
2014,10,02,00,02,0.00
2014,10,02,00,03,0.00
2014,10,02,00,04,0.00
2014,10,02,00,05,0.00
2014,10,02,00,06,0.00
2014,10,02,00,07,0.00
2014,10,02,00,08,0.00
2014,10,02,00,09,0.00
2014,10,02,00,10,0.00
2014,10,02,00,11,0.00
2014,10,02,00,12,0.00
2014,10,02,00,13,0.00
2014,10,02,00,14,0.00
2014,10,02,00,15,0.00
2014,10,02,00,16,0.00
2014,10,02,00,17,0.00
2014,10,02,00,18,0.00
2014,10,02,00,19,0.00
2014,10,02,00,20,0.00
2014,10,02,00,21,0.00
2014,10,02,00,22,0.00
2014,10,02,00,23,0.00
2014,10,02,00,24,0.00
2014,10,02,00,25,0.00
2014,10,02,00,26,0.00
2014,10,02,00,27,0.00
2014,10,02,00,28,0.00
2014,10,02,00,29,0.00
2014,10,02,00,30,0.00
2014,10,02,00,31,0.00
2014,10,02,00,32,0.00
2014,10,02,00,33,0.00
2014,10,02,00,34,0.00
2014,10,02,00,35,0.00
2014,10,02,00,36,0.00
2014,10,02,00,37,0.00
2014,10,02,00,38,0.00
2014,10,02,00,39,0.00
2014,10,02,00,40,0.00
2014,10,02,00,41,0.00
2014,10,02,00,42,0.00
2014,10,02,00,43,0.00
2014,10,02,00,44,0.00
2014,10,02,00,45,0.00
2014,10,02,00,46,0.00
2014,10,02,00,47,0.00
2014,10,02,00,48,0.00
2014,10,02,00,49,0.00
2014,10,02,00,50,0.00
2014,10,02,00,51,0.00
2014,10,02,00,52,0.00
2014,10,02,00,53,0.00
2014,10,02,00,54,0.00
2014,10,02,00,55,0.00
2014,10,02,00,56,0.00
2014,10,02,00,57,0.00
2014,10,02,00,58,0.00
2014,10,02,00,59,0.00
2014,10,02,01,00,0.00
2014,10,02,01,01,0.00
2014,10,02,01,02,0.00
2014,10,02,01,03,0.00
2014,10,02,01,04,0.00
2014,10,02,01,05,0.00
2014,10,02,01,06,0.00
2014,10,02,01,07,0.00
2014,10,02,01,08,0.00
2014,10,02,01,09,0.00
2014,10,02,01,10,0.00
2014,10,02,01,11,0.00
2014,10,02,01,12,0.00
2014,10,02,01,13,0.00
2014,10,02,01,14,0.00
2014,10,02,01,15,0.00
2014,10,02,01,16,0.00
2014,10,02,01,17,0.00
2014,10,02,01,18,0.00
2014,10,02,01,19,0.00
2014,10,02,01,20,0.00
2014,10,02,01,21,0.00
2014,10,02,01,22,0.00
2014,10,02,01,23,0.00
2014,10,02,01,24,0.00
2014,10,02,01,25,0.00
2014,10,02,01,26,0.00
2014,10,02,01,27,0.00
2014,10,02,01,28,0.00
2014,10,02,01,29,0.00
2014,10,02,01,30,0.00
2014,10,02,01,31,0.00
2014,10,02,01,32,0.00
2014,10,02,01,33,0.00
2014,10,02,01,34,0.00
2014,10,02,01,35,0.00
2014,10,02,01,36,0.00
2014,10,02,01,37,0.00
2014,10,02,01,38,0.00
2014,10,02,01,39,0.00
2014,10,02,01,40,0.00
2014,10,02,01,41,0.00
2014,10,02,01,42,0.00
2014,10,02,01,43,0.00
2014,10,02,01,44,0.00
2014,10,02,01,45,0.00
2014,10,02,01,46,0.00
2014,10,02,01,47,0.00
2014,10,02,01,48,0.00
2014,10,02,01,49,0.00
2014,10,02,01,50,0.00
2014,10,02,01,51,0.00
2014,10,02,01,52,0.00
2014,10,02,01,53,0.00
2014,10,02,01,54,0.00
2014,10,02,01,55,0.00
2014,10,02,01,56,0.00
2014,10,02,01,57,0.00
2014,10,02,01,58,0.00
2014,10,02,01,59,0.00
2014,10,02,02,00,0.00
2014,10,02,02,01,0.00
2014,10,02,02,02,0.00
2014,10,02,02,03,0.00
2014,10,02,02,04,0.00
2014,10,02,02,05,0.00
2014,10,02,02,06,0.00
2014,10,02,02,07,0.00
2014,10,02,02,08,0.00
2014,10,02,02,09,0.00
2014,10,02,02,10,0.00
2014,10,02,02,11,0.00
2014,10,02,02,12,0.00
2014,10,02,02,13,0.00
2014,10,02,02,14,0.00
2014,10,02,02,15,0.00
2014,10,02,02,16,0.00
2014,10,02,02,17,0.00
2014,10,02,02,18,0.00
2014,10,02,02,19,0.00
2014,10,02,02,20,0.00
2014,10,02,02,21,0.00
2014,10,02,02,22,0.00
2014,10,02,02,23,0.00
2014,10,02,02,24,0.00
2014,10,02,02,25,0.00
2014,10,02,02,26,0.00
2014,10,02,02,27,0.00
2014,10,02,02,28,0.00
2014,10,02,02,29,0.00
2014,10,02,02,30,0.00
2014,10,02,02,31,0.00
2014,10,02,02,32,0.00
2014,10,02,02,33,0.00
2014,10,02,02,34,0.00
2014,10,02,02,35,0.00
2014,10,02,02,36,0.00
2014,10,02,02,37,0.00
2014,10,02,02,38,0.00
2014,10,02,02,39,0.00
2014,10,02,02,40,0.00
2014,10,02,02,41,0.00
2014,10,02,02,42,0.00
2014,10,02,02,43,0.00
2014,10,02,02,44,0.00
2014,10,02,02,45,0.00
2014,10,02,02,46,0.00
2014,10,02,02,47,0.00
2014,10,02,02,48,0.00
2014,10,02,02,49,0.00
2014,10,02,02,50,0.00
2014,10,02,02,51,0.00
2014,10,02,02,52,0.00
2014,10,02,02,53,0.00
2014,10,02,02,54,0.00
2014,10,02,02,55,0.00
2014,10,02,02,56,0.00
2014,10,02,02,57,0.00
2014,10,02,02,58,0.00
2014,10,02,02,59,0.00
2014,10,02,03,00,0.00
2014,10,02,03,01,0.00
2014,10,02,03,02,0.00
2014,10,02,03,03,0.00
2014,10,02,03,06,0.00
2014,10,02,03,07,0.00
2014,10,02,03,08,0.00
2014,10,02,03,09,0.00
2014,10,02,03,10,0.00
2014,10,02,03,11,0.00
2014,10,02,03,12,0.00
2014,10,02,03,13,0.00
2014,10,02,03,14,0.00
2014,10,02,03,15,0.00
2014,10,02,03,16,0.00
2014,10,02,03,17,0.00
2014,10,02,03,18,0.00
2014,10,02,03,19,0.00
2014,10,02,03,20,0.00
2014,10,02,03,21,0.00
2014,10,02,03,22,0.00
2014,10,02,03,23,0.00
2014,10,02,03,24,0.00
2014,10,02,03,25,0.00
2014,10,02,03,26,0.00
2014,10,02,03,27,0.00
2014,10,02,03,28,0.00
2014,10,02,03,29,0.00
2014,10,02,03,30,0.00
2014,10,02,03,31,0.00
2014,10,02,03,32,0.00
2014,10,02,03,33,0.00
2014,10,02,03,34,0.00
2014,10,02,03,35,0.00
2014,10,02,03,36,0.00
2014,10,02,03,37,0.00
2014,10,02,03,38,0.00
2014,10,02,03,39,0.00
2014,10,02,03,40,0.00
2014,10,02,03,41,0.00
2014,10,02,03,42,0.00
2014,10,02,03,43,0.00
2014,10,02,03,44,0.00
2014,10,02,03,45,0.00
2014,10,02,03,46,0.00
2014,10,02,03,47,0.00
2014,10,02,03,48,0.00
2014,10,02,03,49,0.00
2014,10,02,03,50,0.00
2014,10,02,03,51,0.00
2014,10,02,03,52,0.00
2014,10,02,03,53,0.00
2014,10,02,03,54,0.00
2014,10,02,03,55,0.00
2014,10,02,03,56,0.00
2014,10,02,03,57,0.00
2014,10,02,03,58,0.00
2014,10,02,03,59,0.00
2014,10,02,04,00,0.00
2014,10,02,04,01,0.00
2014,10,02,04,02,0.00
2014,10,02,04,03,0.00
2014,10,02,04,04,0.00
2014,10,02,04,05,0.00
2014,10,02,04,06,0.00
2014,10,02,04,07,0.00
2014,10,02,04,08,0.00
2014,10,02,04,09,0.00
2014,10,02,04,10,0.00
2014,10,02,04,11,0.00
2014,10,02,04,12,0.00
2014,10,02,04,13,0.00
2014,10,02,04,14,0.00
2014,10,02,04,15,0.00
2014,10,02,04,16,0.00
2014,10,02,04,17,0.00
2014,10,02,04,18,0.00
2014,10,02,04,19,0.00
2014,10,02,04,20,0.00
2014,10,02,04,21,0.00
2014,10,02,04,22,0.00
2014,10,02,04,23,0.00
2014,10,02,04,24,0.00
2014,10,02,04,25,0.00
2014,10,02,04,26,0.00
2014,10,02,04,27,0.00
2014,10,02,04,28,0.00
2014,10,02,04,29,0.00
2014,10,02,04,30,0.00
2014,10,02,04,31,0.00
2014,10,02,04,32,0.00
2014,10,02,04,33,0.00
2014,10,02,04,34,0.00
2014,10,02,04,35,0.00
2014,10,02,04,36,0.00
2014,10,02,04,37,0.00
2014,10,02,04,38,0.00
2014,10,02,04,39,0.00
2014,10,02,04,40,0.00
2014,10,02,04,41,0.00
2014,10,02,04,42,0.00
2014,10,02,04,43,0.00
2014,10,02,04,44,0.00
2014,10,02,04,45,0.00
2014,10,02,04,46,0.00
2014,10,02,04,47,0.00
2014,10,02,04,48,0.00
2014,10,02,04,49,0.00
2014,10,02,04,50,0.00
2014,10,02,04,51,0.00
2014,10,02,04,52,0.00
2014,10,02,04,53,0.00
2014,10,02,04,54,0.00
2014,10,02,04,55,0.00
2014,10,02,04,56,0.00
2014,10,02,04,57,0.00
2014,10,02,04,58,0.00
2014,10,02,04,59,0.00
2014,10,02,05,00,0.00
2014,10,02,05,01,0.00
2014,10,02,05,02,0.00
2014,10,02,05,03,0.00
2014,10,02,05,04,0.00
2014,10,02,05,05,0.00
2014,10,02,05,06,0.00
2014,10,02,05,07,0.00
2014,10,02,05,08,0.00
2014,10,02,05,09,0.00
2014,10,02,05,10,0.00
2014,10,02,05,11,0.00
2014,10,02,05,12,0.00
2014,10,02,05,13,0.00
2014,10,02,05,14,0.00
2014,10,02,05,15,0.00
2014,10,02,05,16,0.00
2014,10,02,05,17,0.00
2014,10,02,05,18,0.00
2014,10,02,05,19,0.00
2014,10,02,05,20,0.00
2014,10,02,05,21,0.00
2014,10,02,05,22,0.00
2014,10,02,05,23,0.00
2014,10,02,05,24,0.00
2014,10,02,05,25,0.00
2014,10,02,05,26,0.00
2014,10,02,05,27,0.00
2014,10,02,05,28,0.00
2014,10,02,05,29,0.00
2014,10,02,05,30,0.00
2014,10,02,05,31,0.00
2014,10,02,05,32,0.00
2014,10,02,05,33,0.00
2014,10,02,05,34,0.00
2014,10,02,05,35,0.00
2014,10,02,05,36,0.00
2014,10,02,05,37,0.00
2014,10,02,05,38,0.00
2014,10,02,05,39,0.00
2014,10,02,05,40,0.00
2014,10,02,05,41,0.00
2014,10,02,05,42,0.00
2014,10,02,05,43,0.00
2014,10,02,05,44,0.00
2014,10,02,05,45,0.00
2014,10,02,05,46,0.00
2014,10,02,05,47,0.00
2014,10,02,05,48,0.00
2014,10,02,05,49,0.00
2014,10,02,05,50,0.00
2014,10,02,05,51,0.00
2014,10,02,05,52,0.00
2014,10,02,05,53,0.00
2014,10,02,05,54,0.00
2014,10,02,05,55,0.00
2014,10,02,05,56,0.00
2014,10,02,05,57,0.00
2014,10,02,05,58,0.00
2014,10,02,05,59,0.00
2014,10,02,06,00,0.00
2014,10,02,06,01,0.00
2014,10,02,06,02,0.00
2014,10,02,06,03,0.00
2014,10,02,06,04,0.00
2014,10,02,06,05,0.00
2014,10,02,06,06,0.00
2014,10,02,06,07,0.00
2014,10,02,06,08,0.00
2014,10,02,06,09,0.00
2014,10,02,06,10,0.00
2014,10,02,06,11,0.00
2014,10,02,06,12,0.00
2014,10,02,06,13,0.00
2014,10,02,06,14,0.00
2014,10,02,06,15,0.00
2014,10,02,06,16,0.00
2014,10,02,06,17,0.00
2014,10,02,06,18,0.00
2014,10,02,06,19,0.00
2014,10,02,06,20,0.00
2014,10,02,06,21,0.00
2014,10,02,06,22,0.00
2014,10,02,06,23,0.00
2014,10,02,06,24,0.00
2014,10,02,06,25,0.00
2014,10,02,06,26,0.00
2014,10,02,06,27,0.00
2014,10,02,06,28,0.00
2014,10,02,06,29,0.00
2014,10,02,06,30,0.00
2014,10,02,06,31,0.00
2014,10,02,06,32,0.00
2014,10,02,06,33,0.00
2014,10,02,06,34,0.00
2014,10,02,06,35,0.00
2014,10,02,06,36,0.00
2014,10,02,06,37,0.00
2014,10,02,06,38,0.00
2014,10,02,06,39,0.00
2014,10,02,06,40,0.00
2014,10,02,06,41,0.00
2014,10,02,06,42,0.00
2014,10,02,06,43,0.00
2014,10,02,06,44,0.00
2014,10,02,06,45,0.00
2014,10,02,06,46,0.00
2014,10,02,06,47,0.00
2014,10,02,06,48,0.00
2014,10,02,06,49,0.00
2014,10,02,06,50,0.00
2014,10,02,06,51,0.00
2014,10,02,06,52,0.00
2014,10,02,06,53,0.00
2014,10,02,06,54,0.00
2014,10,02,06,55,0.00
2014,10,02,06,56,0.00
2014,10,02,06,57,0.00
2014,10,02,06,58,0.00
2014,10,02,06,59,0.00
2014,10,02,07,00,0.00
2014,10,02,07,01,0.00
2014,10,02,07,02,0.00
2014,10,02,07,03,0.00
2014,10,02,07,04,0.00
2014,10,02,07,05,0.00
2014,10,02,07,06,0.00
2014,10,02,07,07,0.00
2014,10,02,07,08,0.00
2014,10,02,07,09,0.00
2014,10,02,07,10,0.00
2014,10,02,07,11,0.00
2014,10,02,07,12,0.00
2014,10,02,07,13,0.00
2014,10,02,07,14,0.00
2014,10,02,07,15,0.00
2014,10,02,07,16,0.00
2014,10,02,07,17,0.00
2014,10,02,07,18,0.00
2014,10,02,07,19,0.00
2014,10,02,07,20,0.00
2014,10,02,07,21,3.60
2014,10,02,07,22,5.00
2014,10,02,07,23,5.00
2014,10,02,07,24,6.70
2014,10,02,07,25,7.00
2014,10,02,07,26,9.00
2014,10,02,07,27,9.30
2014,10,02,07,28,11.00
2014,10,02,07,29,11.20
2014,10,02,07,30,12.00
2014,10,02,07,31,12.80
2014,10,02,07,32,14.00
2014,10,02,07,33,15.00
2014,10,02,07,34,17.10
2014,10,02,07,35,18.60
2014,10,02,07,36,19.00
2014,10,02,07,37,19.00
2014,10,02,07,38,19.00
2014,10,02,07,39,19.00
2014,10,02,07,40,19.00
2014,10,02,07,41,19.10
2014,10,02,07,42,20.70
2014,10,02,07,43,19.00
2014,10,02,07,44,19.00
2014,10,02,07,45,19.00
2014,10,02,07,46,19.00
2014,10,02,07,47,19.00
2014,10,02,07,48,19.00
2014,10,02,07,49,19.00
2014,10,02,07,50,20.30
2014,10,02,07,51,22.40
2014,10,02,07,52,24.50
2014,10,02,07,53,25.80
2014,10,02,07,54,27.70
2014,10,02,07,55,29.90
2014,10,02,07,56,30.10
2014,10,02,07,57,32.00
2014,10,02,07,58,32.00
2014,10,02,07,59,32.20
2014,10,02,08,00,33.00
2014,10,02,08,01,33.80
2014,10,02,08,02,35.00
2014,10,02,08,03,36.00
2014,10,02,08,04,37.00
2014,10,02,08,05,38.20
2014,10,02,08,06,39.70
2014,10,02,08,07,41.50
2014,10,02,08,08,45.20
2014,10,02,08,09,48.60
2014,10,02,08,10,50.90
2014,10,02,08,11,54.20
2014,10,02,08,12,58.20
2014,10,02,08,13,60.00
2014,10,02,08,14,60.00
2014,10,02,08,15,59.40
2014,10,02,08,16,58.00
2014,10,02,08,17,57.10
2014,10,02,08,18,56.00
2014,10,02,08,19,56.00
2014,10,02,08,20,56.00
2014,10,02,08,21,56.00
2014,10,02,08,22,57.50
2014,10,02,08,23,59.60
2014,10,02,08,24,61.80
2014,10,02,08,25,63.00
2014,10,02,08,26,65.10
2014,10,02,08,27,67.00
2014,10,02,08,28,67.00
2014,10,02,08,29,66.50
2014,10,02,08,30,65.00
2014,10,02,08,31,65.00
2014,10,02,08,32,66.70
2014,10,02,08,33,71.40
2014,10,02,08,34,78.00
2014,10,02,08,35,86.80
2014,10,02,08,36,94.70
2014,10,02,08,37,99.10
2014,10,02,08,38,103.20
2014,10,02,08,39,104.90
2014,10,02,08,40,104.10
2014,10,02,08,41,101.80
2014,10,02,08,42,97.90
2014,10,02,08,43,97.00
2014,10,02,08,44,97.00
2014,10,02,08,45,96.40
2014,10,02,08,46,93.50
2014,10,02,08,47,89.70
2014,10,02,08,48,85.50
2014,10,02,08,49,79.60
2014,10,02,08,50,75.20
2014,10,02,08,51,71.40
2014,10,02,08,52,69.30
2014,10,02,08,53,69.00
2014,10,02,08,54,71.60
2014,10,02,08,55,75.60
2014,10,02,08,56,81.10
2014,10,02,08,57,84.60
2014,10,02,08,58,90.50
2014,10,02,08,59,94.00
2014,10,02,09,00,97.80
2014,10,02,09,01,103.30
2014,10,02,09,02,114.10
2014,10,02,09,03,124.70
2014,10,02,09,04,135.40
2014,10,02,09,05,141.00
2014,10,02,09,06,132.10
2014,10,02,09,07,129.50
2014,10,02,09,08,120.30
2014,10,02,09,09,126.50
2014,10,02,09,10,117.10
2014,10,02,09,11,128.00
2014,10,02,09,12,145.10
2014,10,02,09,13,127.60
2014,10,02,09,14,129.30
2014,10,02,09,15,131.90
2014,10,02,09,16,160.00
2014,10,02,09,17,200.90
2014,10,02,09,18,234.00
2014,10,02,09,19,258.00
2014,10,02,09,20,261.50
2014,10,02,09,21,242.70
2014,10,02,09,22,215.80
2014,10,02,09,23,186.60
2014,10,02,09,24,199.00
2014,10,02,09,25,246.50
2014,10,02,09,26,269.70
2014,10,02,09,27,244.40
2014,10,02,09,28,260.40
2014,10,02,09,29,272.70
2014,10,02,09,30,285.80
2014,10,02,09,31,288.00
2014,10,02,09,32,247.10
2014,10,02,09,33,220.00
2014,10,02,09,34,212.70
2014,10,02,09,35,216.00
2014,10,02,09,36,293.30
2014,10,02,09,37,356.70
2014,10,02,09,38,371.60
2014,10,02,09,39,357.60
2014,10,02,09,40,365.50
2014,10,02,09,41,366.20
2014,10,02,09,42,350.00
2014,10,02,09,43,322.20
2014,10,02,09,44,195.30
2014,10,02,09,45,190.00
2014,10,02,09,46,188.50
2014,10,02,09,47,186.00
2014,10,02,09,48,183.50
2014,10,02,09,49,181.00
2014,10,02,09,50,183.50
2014,10,02,09,51,193.00
2014,10,02,09,52,204.30
2014,10,02,09,53,217.50
2014,10,02,09,54,214.10
2014,10,02,09,55,213.90
2014,10,02,09,56,221.00
2014,10,02,09,57,232.10
2014,10,02,09,58,277.60
2014,10,02,09,59,269.30
2014,10,02,10,00,252.00
2014,10,02,10,01,259.50
2014,10,02,10,02,247.30
2014,10,02,10,03,229.00
2014,10,02,10,04,238.60
2014,10,02,10,05,273.10
2014,10,02,10,06,299.70
2014,10,02,10,07,287.80
2014,10,02,10,08,292.30
2014,10,02,10,09,251.30
2014,10,02,10,10,323.60
2014,10,02,10,11,326.10
2014,10,02,10,12,388.40
2014,10,02,10,13,394.50
2014,10,02,10,14,407.80
2014,10,02,10,15,410.40
2014,10,02,10,16,405.50
2014,10,02,10,17,414.00
2014,10,02,10,18,406.70
2014,10,02,10,19,395.90
2014,10,02,10,20,357.80
2014,10,02,10,21,348.00
2014,10,02,10,22,378.50
2014,10,02,10,23,387.20
2014,10,02,10,24,343.30
2014,10,02,10,25,326.10
2014,10,02,10,26,320.60
2014,10,02,10,27,331.40
2014,10,02,10,28,363.90
2014,10,02,10,29,398.10
2014,10,02,10,30,353.70
2014,10,02,10,31,320.50
2014,10,02,10,32,282.30
2014,10,02,10,33,267.30
2014,10,02,10,34,263.50
2014,10,02,10,35,265.20
2014,10,02,10,36,274.00
2014,10,02,10,37,309.70
2014,10,02,10,38,322.00
2014,10,02,10,39,353.70
2014,10,02,10,40,374.40
2014,10,02,10,41,350.30
2014,10,02,10,42,329.30
2014,10,02,10,43,325.00
2014,10,02,10,44,337.10
2014,10,02,10,45,340.10
2014,10,02,10,46,331.70
2014,10,02,10,47,321.20
2014,10,02,10,48,323.00
2014,10,02,10,49,323.00
2014,10,02,10,50,325.50
2014,10,02,10,51,319.70
2014,10,02,10,52,308.70
2014,10,02,10,53,302.80
2014,10,02,10,54,296.00
2014,10,02,10,55,303.10
2014,10,02,10,56,308.30
2014,10,02,10,57,318.20
2014,10,02,10,58,321.30
2014,10,02,10,59,332.20
2014,10,02,11,00,343.90
2014,10,02,11,01,349.70
2014,10,02,11,02,358.20
2014,10,02,11,03,356.70
2014,10,02,11,04,352.50
2014,10,02,11,05,346.70
2014,10,02,11,06,332.30
2014,10,02,11,07,324.10
2014,10,02,11,08,328.30
2014,10,02,11,09,336.90
2014,10,02,11,10,326.20
2014,10,02,11,11,324.80
2014,10,02,11,12,319.30
2014,10,02,11,13,312.30
2014,10,02,11,14,306.00
2014,10,02,11,15,298.50
2014,10,02,11,16,301.70
2014,10,02,11,17,318.80
2014,10,02,11,18,339.50
2014,10,02,11,19,351.00
2014,10,02,11,20,347.90
2014,10,02,11,21,343.70
2014,10,02,11,22,343.00
2014,10,02,11,23,345.30
2014,10,02,11,24,352.00
2014,10,02,11,25,340.30
2014,10,02,11,26,331.60
2014,10,02,11,27,316.00
2014,10,02,11,28,314.90
2014,10,02,11,29,309.60
2014,10,02,11,30,315.30
2014,10,02,11,31,317.30
2014,10,02,11,32,321.90
2014,10,02,11,33,327.10
2014,10,02,11,34,328.40
2014,10,02,11,35,327.00
2014,10,02,11,36,321.00
2014,10,02,11,37,311.70
2014,10,02,11,38,309.00
2014,10,02,11,39,304.80
2014,10,02,11,40,304.00
2014,10,02,11,41,316.70
2014,10,02,11,42,305.00
2014,10,02,11,43,316.40
2014,10,02,11,44,327.50
2014,10,02,11,45,340.90
2014,10,02,11,46,359.70
2014,10,02,11,47,368.50
2014,10,02,11,48,362.90
2014,10,02,11,49,356.70
2014,10,02,11,50,350.00
2014,10,02,11,51,342.30
2014,10,02,11,52,341.90
2014,10,02,11,53,348.30
2014,10,02,11,54,358.60
2014,10,02,11,55,361.80
2014,10,02,11,56,363.90
2014,10,02,11,57,357.40
2014,10,02,11,58,341.60
2014,10,02,11,59,337.30
2014,10,02,12,00,306.40
2014,10,02,12,01,293.30
2014,10,02,12,02,288.80
2014,10,02,12,03,285.10
2014,10,02,12,04,282.00
2014,10,02,12,05,283.40
2014,10,02,12,06,289.70
2014,10,02,12,07,298.30
2014,10,02,12,08,303.30
2014,10,02,12,09,305.70
2014,10,02,12,10,304.20
2014,10,02,12,11,301.10
2014,10,02,12,12,291.30
2014,10,02,12,13,284.10
2014,10,02,12,14,278.30
2014,10,02,12,15,274.90
2014,10,02,12,16,272.60
2014,10,02,12,17,274.80
2014,10,02,12,18,280.30
2014,10,02,12,19,292.30
2014,10,02,12,20,306.10
2014,10,02,12,21,315.70
2014,10,02,12,22,315.90
2014,10,02,12,23,311.90
2014,10,02,12,24,300.70
2014,10,02,12,25,303.50
2014,10,02,12,26,309.00
2014,10,02,12,27,336.00
2014,10,02,12,28,358.10
2014,10,02,12,29,378.70
2014,10,02,12,30,387.50
2014,10,02,12,31,371.90
2014,10,02,12,32,352.30
2014,10,02,12,33,337.50
2014,10,02,12,34,326.00
2014,10,02,12,35,330.00
2014,10,02,12,36,337.70
2014,10,02,12,37,334.70
2014,10,02,12,38,335.00
2014,10,02,12,39,343.70
2014,10,02,12,40,352.20
2014,10,02,12,41,339.70
2014,10,02,12,42,356.70
2014,10,02,12,43,401.30
2014,10,02,12,44,395.60
2014,10,02,12,45,362.20
2014,10,02,12,46,346.90
2014,10,02,12,47,336.40
2014,10,02,12,48,324.00
2014,10,02,12,49,315.40
2014,10,02,12,50,311.80
2014,10,02,12,51,311.00
2014,10,02,12,52,312.40
2014,10,02,12,53,313.00
2014,10,02,12,54,314.60
2014,10,02,12,55,313.20
2014,10,02,12,56,309.20
2014,10,02,12,57,303.40
2014,10,02,12,58,295.50
2014,10,02,12,59,284.90
2014,10,02,13,00,274.00
2014,10,02,13,01,266.70
2014,10,02,13,02,260.50
2014,10,02,13,03,258.00
2014,10,02,13,04,257.60
2014,10,02,13,05,257.60
2014,10,02,13,06,254.70
2014,10,02,13,07,250.90
2014,10,02,13,08,250.00
2014,10,02,13,09,250.80
2014,10,02,13,10,252.80
2014,10,02,13,11,251.10
2014,10,02,13,12,249.80
2014,10,02,13,13,247.70
2014,10,02,13,14,245.40
2014,10,02,13,15,243.30
2014,10,02,13,16,245.30
2014,10,02,13,17,249.10
2014,10,02,13,18,252.70
2014,10,02,13,19,255.00
2014,10,02,13,20,253.90
2014,10,02,13,21,249.90
2014,10,02,13,22,244.40
2014,10,02,13,23,240.00
2014,10,02,13,24,236.60
2014,10,02,13,25,234.20
2014,10,02,13,26,234.00
2014,10,02,13,27,234.30
2014,10,02,13,28,237.00
2014,10,02,13,29,236.80
2014,10,02,13,30,236.00
2014,10,02,13,31,236.00
2014,10,02,13,32,236.00
2014,10,02,13,33,236.00
2014,10,02,13,34,224.50
2014,10,02,13,35,215.10
2014,10,02,13,36,221.60
2014,10,02,13,37,232.50
2014,10,02,13,38,241.20
2014,10,02,13,39,243.80
2014,10,02,13,40,249.40
2014,10,02,13,41,256.70
2014,10,02,13,42,262.20
2014,10,02,13,43,265.20
2014,10,02,13,44,273.70
2014,10,02,13,45,285.60
2014,10,02,13,46,287.00
2014,10,02,13,47,250.60
2014,10,02,13,48,226.50
2014,10,02,13,49,216.30
2014,10,02,13,50,210.70
2014,10,02,13,51,207.10
2014,10,02,13,52,206.00
2014,10,02,13,53,204.40
2014,10,02,13,54,202.40
2014,10,02,13,55,199.30
2014,10,02,13,56,197.10
2014,10,02,13,57,195.00
2014,10,02,13,58,195.00
2014,10,02,13,59,196.70
2014,10,02,14,00,206.10
2014,10,02,14,01,216.20
2014,10,02,14,02,227.20
2014,10,02,14,03,236.10
2014,10,02,14,04,241.50
2014,10,02,14,05,248.00
2014,10,02,14,06,255.50
2014,10,02,14,07,255.90
2014,10,02,14,08,243.00
2014,10,02,14,09,231.70
2014,10,02,14,10,231.70
2014,10,02,14,11,232.00
2014,10,02,14,12,224.10
2014,10,02,14,13,215.30
2014,10,02,14,14,209.70
2014,10,02,14,15,203.00
2014,10,02,14,16,199.70
2014,10,02,14,17,198.20
2014,10,02,14,18,196.10
2014,10,02,14,19,194.00
2014,10,02,14,20,192.40
2014,10,02,14,21,192.60
2014,10,02,14,22,195.70
2014,10,02,14,23,197.00
2014,10,02,14,24,191.30
2014,10,02,14,25,181.90
2014,10,02,14,26,172.40
2014,10,02,14,27,166.80
2014,10,02,14,28,162.90
2014,10,02,14,29,162.20
2014,10,02,14,30,163.00
2014,10,02,14,31,163.00
2014,10,02,14,32,161.90
2014,10,02,14,33,160.90
2014,10,02,14,34,164.50
2014,10,02,14,35,168.20
2014,10,02,14,36,166.50
2014,10,02,14,37,160.20
2014,10,02,14,38,154.20
2014,10,02,14,39,151.40
2014,10,02,14,40,154.50
2014,10,02,14,41,162.60
2014,10,02,14,42,163.60
2014,10,02,14,43,175.70
2014,10,02,14,44,173.60
2014,10,02,14,45,172.00
2014,10,02,14,46,172.50
2014,10,02,14,47,174.00
2014,10,02,14,48,175.70
2014,10,02,14,49,181.70
2014,10,02,14,50,191.90
2014,10,02,14,51,204.40
2014,10,02,14,52,215.00
2014,10,02,14,53,221.80
2014,10,02,14,54,226.40
2014,10,02,14,55,229.70
2014,10,02,14,56,231.90
2014,10,02,14,57,233.80
2014,10,02,14,58,228.70
2014,10,02,14,59,227.40
2014,10,02,15,00,230.70
2014,10,02,15,01,239.20
2014,10,02,15,02,252.90
2014,10,02,15,03,271.30
2014,10,02,15,04,296.00
2014,10,02,15,05,313.30
2014,10,02,15,06,310.70
2014,10,02,15,07,308.00
2014,10,02,15,08,334.70
2014,10,02,15,09,361.60
2014,10,02,15,10,372.00
2014,10,02,15,11,454.90
2014,10,02,15,12,454.10
2014,10,02,15,13,455.50
2014,10,02,15,14,443.10
2014,10,02,15,15,430.00
2014,10,02,15,16,427.60
2014,10,02,15,17,427.20
2014,10,02,15,18,409.60
2014,10,02,15,19,408.50
2014,10,02,15,20,408.40
2014,10,02,15,21,412.90
2014,10,02,15,22,412.50
2014,10,02,15,23,414.90
2014,10,02,15,24,422.70
2014,10,02,15,25,424.00
2014,10,02,15,26,345.10
2014,10,02,15,27,343.60
2014,10,02,15,28,391.60
2014,10,02,15,29,339.30
2014,10,02,15,30,291.40
2014,10,02,15,31,277.90
2014,10,02,15,32,259.80
2014,10,02,15,33,241.40
2014,10,02,15,34,225.20
2014,10,02,15,35,210.60
2014,10,02,15,36,197.70
2014,10,02,15,37,193.00
2014,10,02,15,38,190.50
2014,10,02,15,39,190.00
2014,10,02,15,40,190.00
2014,10,02,15,41,191.90
2014,10,02,15,42,195.00
2014,10,02,15,43,194.80
2014,10,02,15,44,192.80
2014,10,02,15,45,191.50
2014,10,02,15,46,188.90
2014,10,02,15,47,184.20
2014,10,02,15,48,178.90
2014,10,02,15,49,174.10
2014,10,02,15,50,171.50
2014,10,02,15,51,168.50
2014,10,02,15,52,165.70
2014,10,02,15,53,162.70
2014,10,02,15,54,158.80
2014,10,02,15,55,153.70
2014,10,02,15,56,151.20
2014,10,02,15,57,149.00
2014,10,02,15,58,148.10
2014,10,02,15,59,149.40
2014,10,02,16,00,152.20
2014,10,02,16,01,157.70
2014,10,02,16,02,164.70
2014,10,02,16,03,172.90
2014,10,02,16,04,183.20
2014,10,02,16,05,194.90
2014,10,02,16,06,210.80
2014,10,02,16,07,218.00
2014,10,02,16,08,218.00
2014,10,02,16,09,216.40
2014,10,02,16,10,214.30
2014,10,02,16,11,214.00
2014,10,02,16,12,214.00
2014,10,02,16,13,214.00
2014,10,02,16,14,214.00
2014,10,02,16,15,205.30
2014,10,02,16,16,171.90
2014,10,02,16,17,165.20
2014,10,02,16,18,160.40
2014,10,02,16,19,156.60
2014,10,02,16,20,152.80
2014,10,02,16,21,147.80
2014,10,02,16,22,143.30
2014,10,02,16,23,139.80
2014,10,02,16,24,135.80
2014,10,02,16,25,132.40
2014,10,02,16,26,128.20
2014,10,02,16,27,127.00
2014,10,02,16,28,127.00
2014,10,02,16,29,127.20
2014,10,02,16,30,128.00
2014,10,02,16,31,128.00
2014,10,02,16,32,128.00
2014,10,02,16,33,128.00
2014,10,02,16,34,128.00
2014,10,02,16,35,127.40
2014,10,02,16,36,127.00
2014,10,02,16,37,125.70
2014,10,02,16,38,123.50
2014,10,02,16,39,120.60
2014,10,02,16,40,118.30
2014,10,02,16,41,114.40
2014,10,02,16,42,110.80
2014,10,02,16,43,106.80
2014,10,02,16,44,104.80
2014,10,02,16,45,103.50
2014,10,02,16,46,101.50
2014,10,02,16,47,99.30
2014,10,02,16,48,97.60
2014,10,02,16,49,96.00
2014,10,02,16,50,95.00
2014,10,02,16,51,95.00
2014,10,02,16,52,96.30
2014,10,02,16,53,97.70
2014,10,02,16,54,99.60
2014,10,02,16,55,100.00
2014,10,02,16,56,100.00
2014,10,02,16,57,98.00
2014,10,02,16,58,96.40
2014,10,02,16,59,90.50
2014,10,02,17,00,87.00
2014,10,02,17,01,84.00
2014,10,02,17,02,84.00
2014,10,02,17,03,84.00
2014,10,02,17,04,80.40
2014,10,02,17,05,74.90
2014,10,02,17,06,74.00
2014,10,02,17,07,75.30
2014,10,02,17,08,76.00
2014,10,02,17,09,76.00
2014,10,02,17,10,76.90
2014,10,02,17,11,77.00
2014,10,02,17,12,77.00
2014,10,02,17,13,76.90
2014,10,02,17,14,76.00
2014,10,02,17,15,76.00
2014,10,02,17,16,75.40
2014,10,02,17,17,73.30
2014,10,02,17,18,71.10
2014,10,02,17,19,69.50
2014,10,02,17,20,66.90